Theta_e
314 317 319 318 318 318 319 319 319 318 319 319 319 319 320 321 322 323 324 325 324 325 326 327 326 324 319 310 310 324 330 331 323 317 311 312 306 306 306 306 307 301 303 307 302 301 300
313 315 318 318 318 318 318 318 318 318 318 318 318 318 318 319 320 322 323 324 324 323 324 326 326 324 313 304 320 322 323 322 319 315 313 313 310 307 303 307 307 305 305 304 301 300 300
311 313 314 317 317 317 317 317 318 318 318 318 317 317 318 318 320 321 322 322 323 323 322 324 326 320 310 306 319 320 321 319 319 316 312 313 315 311 307 303 305 306 299 303 300 300 300
309 311 313 313 316 316 317 317 317 317 317 317 317 316 317 318 318 319 320 321 321 322 322 321 323 318 308 319 320 319 319 318 320 319 316 316 315 309 306 304 301 298 298 294 300 300 301
309 310 312 312 311 316 316 316 316 317 316 316 316 316 317 317 317 319 320 320 320 322 321 320 313 309 304 321 314 320 319 315 317 317 317 318 315 305 306 298 295 298 292 295 299 302 300
308 309 310 313 310 315 315 315 315 316 316 315 315 315 316 316 316 317 318 319 319 318 316 315 311 303 306 307 314 318 319 318 314 313 310 310 307 300 301 296 290 291 295 297 297 300 298
307 308 310 312 311 314 314 315 315 315 315 315 315 315 316 315 316 317 314 310 304 301 306 297 299 299 304 311 316 314 316 314 313 309 301 304 299 295 296 299 299 298 296 295 297 301 298
307 308 311 313 314 314 314 314 314 315 315 314 314 314 315 315 315 316 310 303 303 302 295 303 303 302 306 312 306 310 316 307 305 299 302 300 295 299 301 301 300 300 296 297 300 299 299
306 308 310 313 313 312 313 313 313 314 314 313 313 314 314 314 314 310 305 304 310 307 293 297 301 301 302 307 303 306 312 308 302 299 298 295 297 301 300 299 298 297 297 298 299 295 297
307 308 312 312 311 312 312 312 312 312 312 313 313 313 313 313 307 305 302 311 310 307 284 289 296 299 304 304 298 311 313 307 303 298 299 297 299 299 298 297 299 293 301 299 296 295 290
307 310 311 311 310 311 312 312 311 311 311 312 312 312 313 312 302 301 304 311 311 304 274 290 295 305 303 299 299 301 313 307 299 299 299 295 296 296 295 297 300 295 301 297 296 292 289
309 308 309 310 310 311 311 310 311 311 311 311 312 312 312 307 304 304 309 311 306 285 275 288 296 295 295 297 296 303 305 309 307 300 300 297 300 299 299 300 300 299 296 295 294 293 287
307 308 309 309 309 309 310 311 311 311 311 311 311 311 309 306 299 308 309 302 283 278 288 285 289 294 293 292 293 298 298 297 295 290 291 295 296 298 301 295 298 298 295 285 284 284 282
308 308 308 308 307 307 309 310 311 311 311 310 310 309 307 305 307 307 304 292 278 282 283 289 292 292 288 291 292 294 295 292 298 295 291 287 285 295 299 298 293 295 294 282 277 279 280
307 307 307 307 307 307 309 310 310 309 309 309 309 303 300 302 306 304 294 280 281 281 288 287 290 287 287 291 290 292 290 293 297 298 290 288 287 295 297 298 298 293 291 291 282 274 278
306 307 306 306 307 308 309 309 308 308 308 308 297 297 296 304 304 298 286 282 282 288 289 289 285 289 285 288 288 289 290 296 296 299 297 292 285 293 292 298 296 296 297 288 284 275 275
304 305 306 306 305 306 308 308 307 307 308 305 294 287 297 304 301 290 280 274 281 290 291 286 286 287 289 288 289 288 289 293 299 298 296 294 290 287 293 293 292 292 292 290 290 284 279
304 304 304 307 306 306 306 306 306 307 307 299 289 278 300 301 287 286 278 280 289 286 290 290 289 287 285 291 290 290 288 292 300 300 292 294 290 284 289 291 295 296 293 294 287 283 284
304 303 302 305 306 306 305 305 306 307 305 291 285 287 299 295 280 281 282 284 287 285 287 288 287 288 289 288 288 292 293 298 300 299 294 293 287 282 283 289 292 292 294 295 290 286 284
302 301 304 304 304 305 305 306 306 306 304 291 287 282 287 291 287 282 278 281 282 289 288 289 289 290 288 285 290 290 293 298 301 301 298 296 289 287 283 287 290 289 292 294 289 282 283
303 301 303 304 304 305 305 306 306 306 304 292 286 278 280 282 283 286 285 283 282 281 288 289 286 287 286 283 284 291 295 296 299 300 296 293 285 287 287 289 291 290 291 293 290 290 287
300 302 302 304 304 305 305 305 305 305 304 289 286 284 285 284 286 285 286 283 283 285 287 286 285 287 287 284 285 289 295 295 295 296 295 293 286 286 280 288 290 288 291 293 293 293 292
299 299 302 304 305 305 305 304 304 305 301 289 291 291 285 286 285 284 283 283 284 286 288 291 290 289 288 289 292 292 300 300 298 295 293 291 285 283 275 283 285 280 289 291 292 294 294
298 298 302 305 304 304 304 303 303 304 299 290 289 287 285 281 284 284 284 285 284 285 285 290 292 290 293 299 299 300 298 297 299 297 297 290 286 284 280 285 278 286 293 295 293 294 296
298 300 302 304 304 304 303 303 303 304 302 291 290 289 286 279 284 284 283 284 286 286 286 289 291 295 300 298 289 287 286 288 292 296 294 294 286 281 280 280 281 284 286 290 290 290 296
298 300 301 302 302 303 303 302 302 303 303 292 294 292 288 282 279 275 279 284 283 283 283 288 290 294 299 294 285 282 281 283 282 285 291 292 292 285 279 278 275 283 288 295 294 285 296
298 297 302 302 302 302 302 302 302 301 301 292 289 295 290 284 285 277 276 282 287 287 286 286 287 290 297 285 285 283 280 285 282 282 283 285 285 284 282 274 278 285 287 296 283 285 292
299 298 297 300 302 302 302 302 301 301 300 293 288 293 291 285 285 284 284 281 284 286 286 287 289 287 286 284 285 283 282 282 282 285 286 284 283 282 276 269 277 287 290 288 290 288 288
299 299 298 297 301 301 301 300 300 300 300 296 286 291 292 288 286 288 286 285 286 286 282 289 288 287 289 286 285 283 280 282 280 282 287 282 286 284 286 284 287 287 291 293 290 289 289
Wind_Speed
30 29 34 32 30 28 26 26 25 25 24 22 21 21 19 17 15 15 16 16 13 10 15 18 18 19 6 6 7 4 7 8 6 3 7 5 7 6 5 4 2 4 4 3 4 5 5
30 29 30 34 31 29 27 27 25 24 24 23 21 20 19 17 16 17 17 17 16 13 9 18 20 15 6 18 5 10 9 9 7 6 9 7 8 9 6 5 7 4 6 2 4 5 2
31 31 29 32 32 30 28 28 27 24 24 23 22 21 20 18 18 18 16 17 18 15 12 9 21 12 8 16 6 11 7 3 1 9 8 8 3 7 3 2 1 3 2 4 4 3 1
32 31 31 27 33 31 29 28 27 26 24 23 22 21 20 19 19 17 16 17 17 16 14 9 8 6 6 11 2 12 14 3 3 10 12 13 3 5 4 1 4 3 0 4 4 5 4
32 32 32 31 29 33 30 28 28 26 25 24 22 21 20 18 19 18 18 17 17 16 15 10 4 2 5 5 11 10 10 12 5 9 11 12 4 4 4 6 2 2 3 5 3 10 5
31 32 31 33 26 34 31 29 28 27 26 25 24 23 21 20 19 18 18 17 17 15 10 5 3 3 6 8 10 13 13 14 7 8 7 6 3 5 4 5 10 3 3 3 7 7 6
33 30 34 33 29 34 31 30 28 28 26 25 25 23 21 20 20 20 15 7 9 5 13 9 9 1 7 3 9 13 17 19 13 7 10 4 7 15 11 10 5 8 6 10 7 7 6
31 34 33 32 35 32 30 28 28 28 27 25 23 22 21 20 20 21 11 8 22 4 10 13 3 14 1 6 10 15 17 14 14 17 15 4 18 12 8 6 7 6 8 10 3 3 6
26 32 31 32 32 30 29 29 28 29 27 25 24 22 21 21 20 14 14 19 15 5 6 11 12 5 8 2 5 18 21 6 24 23 25 21 15 12 12 9 14 10 7 8 5 2 3
31 35 38 33 30 28 27 28 28 28 27 25 23 22 20 21 13 9 8 8 7 5 3 6 16 9 8 7 7 9 21 14 8 25 27 17 6 23 16 18 13 15 6 3 7 8 5
25 24 33 31 28 26 27 28 28 26 25 25 23 22 22 23 10 12 8 11 8 5 7 11 15 8 12 12 11 16 20 17 20 15 12 18 25 22 22 22 17 6 8 5 3 4 1
28 27 25 24 25 27 30 26 26 25 25 23 23 23 26 12 4 8 8 12 5 7 9 6 12 18 20 16 7 8 19 16 7 13 21 2 10 13 18 11 12 8 7 6 4 2 7
22 25 27 28 28 24 29 28 26 26 26 24 24 25 22 6 8 9 11 10 6 7 5 5 13 21 29 18 21 13 22 29 11 12 17 5 6 9 18 9 8 9 13 2 4 4 10
20 22 23 23 23 23 24 27 28 29 28 25 24 22 9 4 6 9 8 11 9 6 8 1 9 22 25 21 24 18 19 28 19 11 15 14 9 15 10 22 13 22 15 7 8 7 5
17 19 21 22 25 26 30 29 31 30 27 25 23 4 4 3 8 4 10 12 5 5 8 10 1 19 20 19 12 19 14 33 19 20 15 14 6 4 4 7 14 9 15 7 6 2 3
12 18 17 17 20 29 35 32 30 28 28 25 5 5 3 6 6 5 4 9 4 3 4 5 8 10 20 23 17 28 18 17 18 25 6 7 8 2 2 7 1 12 12 7 1 6 5
8 12 15 20 27 23 29 31 29 28 27 20 6 5 5 10 5 3 4 6 4 2 7 5 2 7 11 17 29 25 26 6 22 22 8 13 8 3 6 10 19 8 13 5 6 5 6
11 19 14 23 30 31 28 27 28 28 26 9 5 5 7 10 4 3 4 8 5 6 6 4 3 2 4 18 28 25 31 19 24 23 17 5 7 11 13 4 5 7 10 11 8 9 4
17 8 22 18 28 29 27 27 27 29 20 5 5 4 5 3 7 5 2 5 3 6 8 8 9 12 6 8 14 17 26 27 35 30 22 10 5 11 3 5 5 19 12 19 3 4 11
12 9 26 23 28 27 26 26 27 28 16 6 6 6 1 2 1 5 4 4 7 7 5 12 4 7 6 15 20 17 13 14 34 33 17 9 8 16 22 32 10 19 23 20 4 5 4
15 9 23 23 26 25 25 25 25 24 16 6 3 4 5 11 13 9 10 8 11 7 11 8 10 17 12 9 20 14 14 12 25 24 7 8 8 8 4 7 16 22 19 21 19 14 12
11 9 13 25 26 25 25 24 23 22 15 5 5 5 1 2 9 16 9 11 11 11 10 11 18 17 17 16 21 10 18 17 17 17 21 5 9 6 2 12 18 24 26 26 29 27 23
11 6 17 22 26 23 23 23 22 22 11 3 2 3 4 7 11 9 16 18 17 10 8 21 15 15 18 29 20 25 23 16 24 26 26 15 8 6 3 7 11 5 33 33 29 23 30
9 7 17 21 25 23 22 21 20 23 9 4 3 4 4 4 9 16 9 17 21 20 22 4 19 21 11 6 11 19 14 10 27 22 20 17 8 4 4 11 10 9 21 28 29 29 29
14 16 20 25 25 22 19 17 19 21 13 4 2 3 4 4 8 10 10 7 5 9 16 16 23 16 4 10 7 11 4 3 19 28 18 11 9 7 7 10 4 7 9 30 25 30 26
14 11 22 17 18 20 17 16 16 18 16 4 3 2 4 5 7 6 5 5 8 9 8 16 4 4 6 8 7 6 6 7 7 6 6 5 6 9 5 8 14 4 8 20 7 20 25
9 10 19 23 22 18 17 16 15 14 13 5 2 3 3 2 4 6 5 5 4 8 7 3 3 3 14 5 6 5 3 5 11 16 13 10 6 11 9 3 11 8 6 22 15 15 15
6 16 10 13 18 17 14 13 12 13 12 4 2 3 3 2 3 7 6 6 4 6 9 4 4 2 3 5 3 4 4 5 6 7 18 13 13 8 4 3 14 9 18 27 4 4 6
11 21 15 4 13 12 11 10 8 11 11 5 3 1 2 2 2 3 5 5 8 6 4 5 3 6 7 4 2 4 4 5 8 11 5 3 11 12 15 9 5 6 10 10 4 7 7
Wind_Direction
263 255 223 221 221 219 216 213 212 211 207 208 206 200 199 199 205 206 192 176 168 169 186 168 145 134 129 91 243 73 140 129 137 84 243 204 146 126 178 193 334 243 281 343 168 140 112
264 256 243 221 213 215 216 211 208 210 205 206 200 198 196 198 204 206 201 187 168 163 171 182 157 152 132 214 180 112 110 136 187 180 251 221 183 177 180 189 167 260 214 134 200 165 87
265 255 252 230 215 210 210 211 204 203 205 200 199 195 192 194 199 203 201 194 178 162 153 183 174 165 195 216 182 125 141 124 110 193 256 266 236 154 160 186 253 211 219 183 210 183 205
267 253 244 232 220 208 206 207 204 195 197 197 195 192 186 188 193 193 195 193 182 170 153 125 162 199 238 210 337 138 139 130 142 281 235 272 79 102 86 287 17 129 43 148 220 160 247
260 257 248 231 243 208 204 201 202 195 192 190 190 187 187 184 188 187 188 189 181 162 154 137 75 192 228 294 167 168 156 161 143 273 250 267 113 117 68 112 49 297 168 183 212 194 164
255 257 244 234 228 205 199 198 198 193 188 184 184 183 184 187 189 182 178 181 175 154 138 77 74 114 203 199 173 166 190 154 143 201 261 213 132 124 166 164 208 175 173 233 208 219 189
254 247 250 229 225 193 192 192 192 191 187 181 180 179 182 187 183 176 166 142 166 205 189 169 186 281 95 75 152 185 171 158 155 177 191 222 179 202 205 202 189 160 195 203 232 232 160
255 259 232 215 197 190 187 187 188 187 184 178 175 178 183 187 180 176 154 191 190 147 184 225 274 210 80 159 155 186 180 165 165 182 174 148 217 192 151 211 233 220 198 221 270 152 170
243 238 212 190 187 182 182 183 186 182 177 174 172 176 181 184 174 162 182 199 166 128 148 200 211 165 194 150 200 183 171 203 177 188 188 195 203 154 189 191 210 231 236 204 206 203 316
246 236 189 176 178 178 179 177 177 177 172 171 170 172 174 164 155 158 179 183 179 111 115 203 187 218 167 134 230 203 195 157 186 195 190 217 183 178 192 204 190 205 193 190 148 147 223
198 206 158 162 168 172 169 171 171 171 170 167 169 168 166 161 136 171 156 150 136 77 208 196 171 172 146 178 131 201 199 205 181 174 169 199 179 183 197 200 188 208 144 123 106 109 17
142 145 148 152 164 166 166 167 163 165 164 161 164 165 162 164 106 169 147 132 106 204 210 141 143 168 161 184 213 129 182 232 199 178 201 126 183 176 197 186 177 152 94 60 56 88 242
136 140 146 148 149 153 163 161 162 160 152 156 153 159 158 134 166 160 149 131 200 221 160 189 172 169 176 179 187 189 191 204 177 173 175 145 195 172 174 138 150 143 156 144 208 216 239
139 145 151 155 155 150 160 156 151 149 145 144 139 136 131 124 142 132 148 192 216 135 179 229 171 183 186 171 198 186 208 201 198 197 155 154 186 178 174 189 173 180 172 153 178 204 221
144 149 158 166 166 159 154 148 142 137 135 131 126 104 106 148 133 112 160 210 195 172 162 140 112 175 195 196 165 194 229 196 189 187 159 168 200 150 186 134 158 177 197 144 105 39 95
124 156 131 167 160 169 146 141 138 135 135 132 107 104 142 140 118 93 167 194 187 195 105 63 199 204 189 194 201 189 187 212 188 191 193 163 111 187 140 107 57 183 160 165 122 154 238
120 136 151 154 134 125 132 131 135 139 138 126 90 95 186 135 74 94 196 223 184 201 115 152 161 238 205 194 197 191 201 212 199 192 193 148 117 190 165 201 184 164 191 187 127 159 174
144 132 111 157 141 139 136 139 142 143 141 104 104 97 155 142 152 169 166 181 171 165 174 156 168 259 268 215 194 197 199 186 208 194 177 181 123 160 189 6 268 194 189 188 186 211 215
116 116 133 142 135 137 142 147 148 152 148 110 90 97 158 112 187 182 222 199 191 168 186 186 211 193 194 280 184 190 205 204 183 201 174 172 143 134 121 3 336 203 188 199 95 83 208
103 102 145 153 145 141 145 147 150 154 137 94 111 130 112 204 132 164 139 223 201 203 230 214 262 170 218 253 286 198 200 188 181 195 168 118 167 180 190 204 126 189 198 199 150 188 166
75 130 151 160 152 150 149 150 154 159 158 86 97 204 176 177 207 204 180 194 203 215 208 209 246 225 200 233 268 195 183 193 184 188 157 132 161 172 112 151 171 180 179 188 210 201 200
70 91 185 167 160 158 156 156 159 168 146 82 130 144 74 128 176 197 205 214 204 210 190 223 229 223 203 214 218 281 184 183 180 171 175 221 164 121 82 172 166 183 194 195 211 209 231
52 58 197 169 159 160 158 159 166 173 139 116 74 30 110 155 184 187 208 210 220 216 253 231 212 223 217 221 209 234 228 180 159 168 185 180 133 118 199 150 109 187 200 197 211 204 217
40 348 202 172 160 154 157 158 168 175 146 118 167 126 136 155 183 204 198 214 232 235 240 196 224 229 235 145 222 210 208 191 163 181 180 160 122 93 143 125 187 235 186 209 209 208 214
26 328 151 172 155 152 153 160 167 177 169 90 137 130 139 156 202 216 225 213 251 257 257 243 234 236 207 150 217 143 130 207 182 181 179 173 127 115 159 195 285 262 204 193 189 222 214
38 15 146 142 148 142 147 156 168 178 183 96 153 99 115 128 229 156 176 220 238 251 279 246 162 204 167 193 235 137 171 121 154 118 39 77 157 118 144 156 214 173 188 189 149 257 213
78 67 135 141 140 131 135 139 142 154 161 114 137 161 104 148 187 143 168 189 191 225 260 291 139 169 169 190 210 131 156 142 157 147 156 154 153 174 167 186 275 233 161 134 159 246 173
85 109 57 107 123 126 124 126 136 164 167 124 119 188 133 167 199 188 144 183 227 253 224 213 115 28 109 221 184 137 140 189 100 145 164 165 154 169 108 171 253 174 143 175 168 127 185
124 124 122 82 108 106 115 114 135 161 165 125 101 134 138 162 265 180 205 208 207 241 290 229 229 151 160 201 230 119 146 153 157 158 196 191 189 169 194 186 197 199 175 194 147 153 191